STARLINK-11258 [DTC] (62598 NORAD) Tracking and Keplerian Element Data

This shows tracking and keplerian element data for the satellite.

Feedback or suggestion? Click here.




ElementValue
Catalog62598
NameSTARLINK-11258 [DTC]
Epoch Orbit458
Epoch Day35.16668981
Epoch Year2025
RAAN10.0261
Inclination43.005
Eccentricity0.0001628
Argument of Perigee273.6
Mean Anonmoly248.8642
Mean Motion15.80504937
Decay Rate-0.01114515
L11 62598U 25008M 25035.16668981 -.01114515 00000+0 -63317-2 0 9996
L22 62598 43.0050 10.0261 0001628 273.6000 248.8642 15.80504937 4582



Live tracking and technical data element details for STARLINK-11258 [DTC] (NORAD 62598). STARLINK-11258 [DTC] can be tracked NOW for your location showing map with azimuth and elevation plus other details from your city location.







IsCatalogInMostPopularTable: catalog: 62598, numindb: 5
Update: records affected: 1



GetName: 62598 STARLINK-11258 [DTC]

Hit Count: updated at: Sun, 09 Feb 2025 15:10:45 GMT